28.03.2024;13:45;49,007;
28.03.2024;13:30;49,007;
28.03.2024;13:15;49,007;
28.03.2024;13:00;49,007;
28.03.2024;12:45;49,007;
28.03.2024;12:30;49,007;
28.03.2024;12:15;49,006;
28.03.2024;12:00;49,007;
28.03.2024;11:45;49,006;
28.03.2024;11:30;49,006;
28.03.2024;11:15;49,006;
28.03.2024;11:00;49,006;
28.03.2024;10:45;49,006;
28.03.2024;10:30;49,006;
28.03.2024;10:15;49,006;
28.03.2024;10:00;49,006;
28.03.2024;09:45;49,006;
28.03.2024;09:30;49,006;
28.03.2024;09:15;49,006;
28.03.2024;09:00;49,006;
28.03.2024;08:45;49,006;
28.03.2024;08:30;49,006;
28.03.2024;08:15;49,006;
28.03.2024;08:00;49,006;
28.03.2024;07:45;49,006;
28.03.2024;07:30;49,006;
28.03.2024;07:15;49,006;
28.03.2024;07:00;49,006;
28.03.2024;06:45;49,006;
28.03.2024;06:30;49,006;
28.03.2024;06:15;49,006;
28.03.2024;06:00;49,006;
28.03.2024;05:45;49,006;
28.03.2024;05:30;49,006;
28.03.2024;05:15;49,006;
28.03.2024;05:00;49,006;
28.03.2024;04:45;49,006;
28.03.2024;04:30;49,006;
28.03.2024;04:15;49,006;
28.03.2024;04:00;49,006;
28.03.2024;03:45;49,006;
28.03.2024;03:30;49,006;
28.03.2024;03:15;49,006;
28.03.2024;03:00;49,006;
28.03.2024;02:45;49,006;
28.03.2024;02:30;49,006;
28.03.2024;02:15;49,006;
28.03.2024;02:00;49,006;
28.03.2024;01:45;49,006;
28.03.2024;01:30;49,006;
28.03.2024;01:15;49,006;
28.03.2024;01:00;49,006;
28.03.2024;00:45;49,006;
28.03.2024;00:30;49,006;
28.03.2024;00:15;49,006;
28.03.2024;00:00;49,006;
27.03.2024;23:45;49,006;
27.03.2024;23:30;49,006;
27.03.2024;23:15;49,006;
27.03.2024;23:00;49,006;
27.03.2024;22:45;49,006;
27.03.2024;22:30;49,006;
27.03.2024;22:15;49,006;
27.03.2024;22:00;49,006;
27.03.2024;21:45;49,006;
27.03.2024;21:30;49,006;
27.03.2024;21:15;49,006;
27.03.2024;21:00;49,006;
27.03.2024;20:45;49,006;
27.03.2024;20:30;49,006;
27.03.2024;20:15;49,006;
27.03.2024;20:00;49,006;
27.03.2024;19:45;49,006;
27.03.2024;19:30;49,006;
27.03.2024;19:15;49,006;
27.03.2024;19:00;49,006;
27.03.2024;18:45;49,006;
27.03.2024;18:30;49,006;
27.03.2024;18:15;49,007;
27.03.2024;18:00;49,007;
27.03.2024;17:45;49,007;
27.03.2024;17:30;49,007;
27.03.2024;17:15;49,006;
27.03.2024;17:00;49,007;
27.03.2024;16:45;49,007;
27.03.2024;16:30;49,007;
27.03.2024;16:15;49,007;
27.03.2024;16:00;49,007;
27.03.2024;15:45;49,007;
27.03.2024;15:30;49,007;
27.03.2024;15:15;49,007;
27.03.2024;15:00;49,007;
27.03.2024;14:45;49,007;
27.03.2024;14:30;49,007;
27.03.2024;14:15;49,007;
27.03.2024;14:00;49,007;
27.03.2024;13:45;49,007;
27.03.2024;13:30;49,007;
27.03.2024;13:15;49,007;
27.03.2024;13:00;49,007;
27.03.2024;12:45;49,007;
27.03.2024;12:30;49,008;
27.03.2024;12:15;49,008;
27.03.2024;12:00;49,008;
27.03.2024;11:45;49,008;
27.03.2024;11:30;49,008;
27.03.2024;11:15;49,008;
27.03.2024;11:00;49,008;
27.03.2024;10:45;49,008;
27.03.2024;10:30;49,008;
27.03.2024;10:15;49,008;
27.03.2024;10:00;49,008;
27.03.2024;09:45;49,008;
27.03.2024;09:30;49,008;
27.03.2024;09:15;49,008;
27.03.2024;09:00;49,009;
27.03.2024;08:45;49,009;
27.03.2024;08:30;49,009;
27.03.2024;08:15;49,009;
27.03.2024;08:00;49,009;
27.03.2024;07:45;49,009;
27.03.2024;07:30;49,009;
27.03.2024;07:15;49,009;
27.03.2024;07:00;49,009;
27.03.2024;06:45;49,009;
27.03.2024;06:30;49,009;
27.03.2024;06:15;49,009;
27.03.2024;06:00;49,010;
27.03.2024;05:45;49,010;
27.03.2024;05:30;49,010;
27.03.2024;05:15;49,010;
27.03.2024;05:00;49,010;
27.03.2024;04:45;49,011;
27.03.2024;04:30;49,010;
27.03.2024;04:15;49,011;
27.03.2024;04:00;49,011;
27.03.2024;03:45;49,011;
27.03.2024;03:30;49,011;
27.03.2024;03:15;49,011;
27.03.2024;03:00;49,011;
27.03.2024;02:45;49,011;
27.03.2024;02:30;49,011;
27.03.2024;02:15;49,011;
27.03.2024;02:00;49,011;
27.03.2024;01:45;49,011;
27.03.2024;01:30;49,011;
27.03.2024;01:15;49,012;
27.03.2024;01:00;49,011;
27.03.2024;00:45;49,012;
27.03.2024;00:30;49,012;
27.03.2024;00:15;49,012;
27.03.2024;00:00;49,012;
26.03.2024;23:45;49,012;
26.03.2024;23:30;49,012;
26.03.2024;23:15;49,012;
26.03.2024;23:00;49,012;
26.03.2024;22:45;49,012;
26.03.2024;22:30;49,012;
26.03.2024;22:15;49,012;
26.03.2024;22:00;49,012;
26.03.2024;21:45;49,012;
26.03.2024;21:30;49,012;
26.03.2024;21:15;49,012;
26.03.2024;21:00;49,012;
26.03.2024;20:45;49,012;
26.03.2024;20:30;49,012;
26.03.2024;20:15;49,012;
26.03.2024;20:00;49,012;
26.03.2024;19:45;49,012;
26.03.2024;19:30;49,012;
26.03.2024;19:15;49,012;
26.03.2024;19:00;49,012;
26.03.2024;18:45;49,013;
26.03.2024;18:30;49,013;
26.03.2024;18:15;49,012;
26.03.2024;18:00;49,013;
26.03.2024;17:45;49,013;
26.03.2024;17:30;49,014;
26.03.2024;17:15;49,014;
26.03.2024;17:00;49,013;
26.03.2024;16:45;49,014;
26.03.2024;16:30;49,014;
26.03.2024;16:15;49,014;
26.03.2024;16:00;49,014;
26.03.2024;15:45;49,014;
26.03.2024;15:30;49,014;
26.03.2024;15:15;49,014;
26.03.2024;15:00;49,014;
26.03.2024;14:45;49,014;
26.03.2024;14:30;49,014;
26.03.2024;14:15;49,014;
26.03.2024;14:00;49,014;
26.03.2024;13:45;49,014;
26.03.2024;13:30;49,014;
26.03.2024;13:15;49,014;
26.03.2024;13:00;49,014;
26.03.2024;12:45;49,014;
26.03.2024;12:30;49,014;
26.03.2024;12:15;49,014;
26.03.2024;12:00;49,014;
26.03.2024;11:45;49,014;
26.03.2024;11:30;49,014;
26.03.2024;11:15;49,014;
26.03.2024;11:00;49,014;
26.03.2024;10:45;49,014;
26.03.2024;10:30;49,014;
26.03.2024;10:15;49,014;
26.03.2024;10:00;49,014;
26.03.2024;09:45;49,015;
26.03.2024;09:30;49,014;
26.03.2024;09:15;49,014;
26.03.2024;09:00;49,015;
26.03.2024;08:45;49,015;
26.03.2024;08:30;49,015;
26.03.2024;08:15;49,015;
26.03.2024;08:00;49,015;
26.03.2024;07:45;49,015;
26.03.2024;07:30;49,015;
26.03.2024;07:15;49,015;
26.03.2024;07:00;49,015;
26.03.2024;06:45;49,015;
26.03.2024;06:30;49,015;
26.03.2024;06:15;49,015;
26.03.2024;06:00;49,015;
26.03.2024;05:45;49,015;
26.03.2024;05:30;49,015;
26.03.2024;05:15;49,015;
26.03.2024;05:00;49,015;
26.03.2024;04:45;49,015;
26.03.2024;04:30;49,015;
26.03.2024;04:15;49,015;
26.03.2024;04:00;49,015;
26.03.2024;03:45;49,016;
26.03.2024;03:30;49,016;
26.03.2024;03:15;49,016;
26.03.2024;03:00;49,015;
26.03.2024;02:45;49,016;
26.03.2024;02:30;49,016;
26.03.2024;02:15;49,016;
26.03.2024;02:00;49,016;
26.03.2024;01:45;49,015;
26.03.2024;01:30;49,016;
26.03.2024;01:15;49,016;
26.03.2024;01:00;49,016;
26.03.2024;00:45;49,016;
26.03.2024;00:30;49,016;
26.03.2024;00:15;49,016;
26.03.2024;00:00;49,016;
25.03.2024;23:45;49,016;
25.03.2024;23:30;49,016;
25.03.2024;23:15;49,016;
25.03.2024;23:00;49,016;
25.03.2024;22:45;49,016;
25.03.2024;22:30;49,016;
25.03.2024;22:15;49,016;
25.03.2024;22:00;49,016;
25.03.2024;21:45;49,016;
25.03.2024;21:30;49,016;
25.03.2024;21:15;49,016;
25.03.2024;21:00;49,016;
25.03.2024;20:45;49,016;
25.03.2024;20:30;49,016;
25.03.2024;20:15;49,016;
25.03.2024;20:00;49,016;
25.03.2024;19:45;49,016;
25.03.2024;19:30;49,016;
25.03.2024;19:15;49,016;
25.03.2024;19:00;49,016;
25.03.2024;18:45;49,016;
25.03.2024;18:30;49,016;
25.03.2024;18:15;49,016;
25.03.2024;18:00;49,016;
25.03.2024;17:45;49,016;
25.03.2024;17:30;49,016;
25.03.2024;17:15;49,016;
25.03.2024;17:00;49,016;
25.03.2024;16:45;49,016;
25.03.2024;16:30;49,016;
25.03.2024;16:15;49,016;
25.03.2024;16:00;49,016;
25.03.2024;15:45;49,016;
25.03.2024;15:30;49,016;
25.03.2024;15:15;49,016;
25.03.2024;15:00;49,016;
25.03.2024;14:45;49,016;
25.03.2024;14:30;49,016;
25.03.2024;14:15;49,016;
25.03.2024;14:00;49,016;
25.03.2024;13:45;49,016;
25.03.2024;13:30;49,016;
25.03.2024;13:15;49,016;
25.03.2024;13:00;49,016;
25.03.2024;12:45;49,016;
25.03.2024;12:30;49,016;
25.03.2024;12:15;49,016;
25.03.2024;12:00;49,016;
25.03.2024;11:45;49,016;
25.03.2024;11:30;49,016;
25.03.2024;11:15;49,016;
25.03.2024;11:00;49,016;
25.03.2024;10:45;49,016;
25.03.2024;10:30;49,016;
25.03.2024;10:15;49,016;
25.03.2024;10:00;49,016;
25.03.2024;09:45;49,016;
25.03.2024;09:30;49,016;
25.03.2024;09:15;49,016;
25.03.2024;09:00;49,016;
25.03.2024;08:45;49,016;
25.03.2024;08:30;49,016;
25.03.2024;08:15;49,016;
25.03.2024;08:00;49,016;
25.03.2024;07:45;49,016;
25.03.2024;07:30;49,016;
25.03.2024;07:15;49,016;
25.03.2024;07:00;49,016;
25.03.2024;06:45;49,016;
25.03.2024;06:30;49,016;
25.03.2024;06:15;49,016;
25.03.2024;06:00;49,016;
25.03.2024;05:45;49,016;
25.03.2024;05:30;49,017;
25.03.2024;05:15;49,017;
25.03.2024;05:00;49,016;
25.03.2024;04:45;49,016;
25.03.2024;04:30;49,016;
25.03.2024;04:15;49,017;
25.03.2024;04:00;49,016;
25.03.2024;03:45;49,016;
25.03.2024;03:30;49,017;
25.03.2024;03:15;49,017;
25.03.2024;03:00;49,016;
25.03.2024;02:45;49,017;
25.03.2024;02:30;49,016;
25.03.2024;02:15;49,017;
25.03.2024;02:00;49,017;
25.03.2024;01:45;49,017;
25.03.2024;01:30;49,017;
25.03.2024;01:15;49,017;
25.03.2024;01:00;49,017;
25.03.2024;00:45;49,017;
25.03.2024;00:30;49,017;
25.03.2024;00:15;49,017;
25.03.2024;00:00;49,018;
24.03.2024;23:45;49,017;
24.03.2024;23:30;49,017;
24.03.2024;23:15;49,017;
24.03.2024;23:00;49,018;
24.03.2024;22:45;49,017;
24.03.2024;22:30;49,017;
24.03.2024;22:15;49,018;
24.03.2024;22:00;49,018;
24.03.2024;21:45;49,018;
24.03.2024;21:30;49,018;
24.03.2024;21:15;49,018;
24.03.2024;21:00;49,018;
24.03.2024;20:45;49,018;
24.03.2024;20:30;49,018;
24.03.2024;20:15;49,018;
24.03.2024;20:00;49,018;
24.03.2024;19:45;49,018;
24.03.2024;19:30;49,018;
24.03.2024;19:15;49,018;
24.03.2024;19:00;49,018;
24.03.2024;18:45;49,018;
24.03.2024;18:30;49,018;
24.03.2024;18:15;49,018;
24.03.2024;18:00;49,018;
24.03.2024;17:45;49,018;
24.03.2024;17:30;49,018;
24.03.2024;17:15;49,018;
24.03.2024;17:00;49,018;
24.03.2024;16:45;49,018;
24.03.2024;16:30;49,018;
24.03.2024;16:15;49,018;
24.03.2024;16:00;49,018;
24.03.2024;15:45;49,018;
24.03.2024;15:30;49,018;
24.03.2024;15:15;49,018;
24.03.2024;15:00;49,018;
24.03.2024;14:45;49,018;
24.03.2024;14:30;49,018;
24.03.2024;14:15;49,019;
24.03.2024;14:00;49,018;
24.03.2024;13:45;49,018;
24.03.2024;13:30;49,019;
24.03.2024;13:15;49,019;
24.03.2024;13:00;49,019;
24.03.2024;12:45;49,019;
24.03.2024;12:30;49,019;
24.03.2024;12:15;49,019;
24.03.2024;12:00;49,019;
24.03.2024;11:45;49,019;
24.03.2024;11:30;49,019;
24.03.2024;11:15;49,019;
24.03.2024;11:00;49,019;
24.03.2024;10:45;49,019;
24.03.2024;10:30;49,019;
24.03.2024;10:15;49,019;
24.03.2024;10:00;49,019;
24.03.2024;09:45;49,019;
24.03.2024;09:30;49,019;
24.03.2024;09:15;49,019;
24.03.2024;09:00;49,019;
24.03.2024;08:45;49,019;
24.03.2024;08:30;49,019;
24.03.2024;08:15;49,019;
24.03.2024;08:00;49,019;
24.03.2024;07:45;49,019;
24.03.2024;07:30;49,019;
24.03.2024;07:15;49,019;
24.03.2024;07:00;49,019;
24.03.2024;06:45;49,019;
24.03.2024;06:30;49,019;
24.03.2024;06:15;49,019;
24.03.2024;06:00;49,019;
24.03.2024;05:45;49,019;
24.03.2024;05:30;49,019;
24.03.2024;05:15;49,019;
24.03.2024;05:00;49,019;
24.03.2024;04:45;49,019;
24.03.2024;04:30;49,018;
24.03.2024;04:15;49,019;
24.03.2024;04:00;49,019;
24.03.2024;03:45;49,018;
24.03.2024;03:30;49,018;
24.03.2024;03:15;49,018;
24.03.2024;03:00;49,018;
24.03.2024;02:45;49,018;
24.03.2024;02:30;49,018;
24.03.2024;02:15;49,018;
24.03.2024;02:00;49,018;
24.03.2024;01:45;49,018;
24.03.2024;01:30;49,018;
24.03.2024;01:15;49,018;
24.03.2024;01:00;49,018;
24.03.2024;00:45;49,018;
24.03.2024;00:30;49,017;
24.03.2024;00:15;49,017;
24.03.2024;00:00;49,017;
23.03.2024;23:45;49,017;
23.03.2024;23:30;49,017;
23.03.2024;23:15;49,017;
23.03.2024;23:00;49,016;
23.03.2024;22:45;49,016;
23.03.2024;22:30;49,016;
23.03.2024;22:15;49,016;
23.03.2024;22:00;49,016;
23.03.2024;21:45;49,016;
23.03.2024;21:30;49,015;
23.03.2024;21:15;49,015;
23.03.2024;21:00;49,015;
23.03.2024;20:45;49,015;
23.03.2024;20:30;49,015;
23.03.2024;20:15;49,014;
23.03.2024;20:00;49,014;
23.03.2024;19:45;49,014;
23.03.2024;19:30;49,014;
23.03.2024;19:15;49,014;
23.03.2024;19:00;49,014;
23.03.2024;18:45;49,014;
23.03.2024;18:30;49,014;
23.03.2024;18:15;49,013;
23.03.2024;18:00;49,012;
23.03.2024;17:45;49,012;
23.03.2024;17:30;49,012;
23.03.2024;17:15;49,012;
23.03.2024;17:00;49,012;
23.03.2024;16:45;49,012;
23.03.2024;16:30;49,012;
23.03.2024;16:15;49,012;
23.03.2024;16:00;49,012;
23.03.2024;15:45;49,012;
23.03.2024;15:30;49,012;
23.03.2024;15:15;49,012;
23.03.2024;15:00;49,011;
23.03.2024;14:45;49,011;
23.03.2024;14:30;49,012;
23.03.2024;14:15;49,012;
23.03.2024;14:00;49,012;
23.03.2024;13:45;49,011;
23.03.2024;13:30;49,012;
23.03.2024;13:15;49,011;
23.03.2024;13:00;49,012;
23.03.2024;12:45;49,011;
23.03.2024;12:30;49,011;
23.03.2024;12:15;49,012;
23.03.2024;12:00;49,011;
23.03.2024;11:45;49,012;
23.03.2024;11:30;49,011;
23.03.2024;11:15;49,012;
23.03.2024;11:00;49,012;
23.03.2024;10:45;49,012;
23.03.2024;10:30;49,012;
23.03.2024;10:15;49,012;
23.03.2024;10:00;49,012;
23.03.2024;09:45;49,012;
23.03.2024;09:30;49,012;
23.03.2024;09:15;49,012;
23.03.2024;09:00;49,012;
23.03.2024;08:45;49,012;
23.03.2024;08:30;49,012;
23.03.2024;08:15;49,012;
23.03.2024;08:00;49,012;
23.03.2024;07:45;49,012;
23.03.2024;07:30;49,012;
23.03.2024;07:15;49,012;
23.03.2024;07:00;49,012;
23.03.2024;06:45;49,011;
23.03.2024;06:30;49,011;
23.03.2024;06:15;49,011;
23.03.2024;06:00;49,011;
23.03.2024;05:45;49,011;
23.03.2024;05:30;49,011;
23.03.2024;05:15;49,011;
23.03.2024;05:00;49,011;
23.03.2024;04:45;49,011;
23.03.2024;04:30;49,011;
23.03.2024;04:15;49,011;
23.03.2024;04:00;49,011;
23.03.2024;03:45;49,011;
23.03.2024;03:30;49,011;
23.03.2024;03:15;49,011;
23.03.2024;03:00;49,011;
23.03.2024;02:45;49,011;
23.03.2024;02:30;49,011;
23.03.2024;02:15;49,011;
23.03.2024;02:00;49,010;
23.03.2024;01:45;49,010;
23.03.2024;01:30;49,011;
23.03.2024;01:15;49,010;
23.03.2024;01:00;49,010;
23.03.2024;00:45;49,010;
23.03.2024;00:30;49,010;
23.03.2024;00:15;49,010;
23.03.2024;00:00;49,009;
22.03.2024;23:45;49,010;
22.03.2024;23:30;49,009;
22.03.2024;23:15;49,009;
22.03.2024;23:00;49,009;
22.03.2024;22:45;49,009;
22.03.2024;22:30;49,009;
22.03.2024;22:15;49,008;
22.03.2024;22:00;49,008;
22.03.2024;21:45;49,008;
22.03.2024;21:30;49,008;
22.03.2024;21:15;49,008;
22.03.2024;21:00;49,008;
22.03.2024;20:45;49,008;
22.03.2024;20:30;49,008;
22.03.2024;20:15;49,008;
22.03.2024;20:00;49,008;
22.03.2024;19:45;49,007;
22.03.2024;19:30;49,007;
22.03.2024;19:15;49,007;
22.03.2024;19:00;49,007;
22.03.2024;18:45;49,007;
22.03.2024;18:30;49,007;
22.03.2024;18:15;49,007;
22.03.2024;18:00;49,007;
22.03.2024;17:45;49,007;
22.03.2024;17:30;49,007;
22.03.2024;17:15;49,007;
22.03.2024;17:00;49,006;
22.03.2024;16:45;49,007;
22.03.2024;16:30;49,007;
22.03.2024;16:15;49,006;
22.03.2024;16:00;49,006;
22.03.2024;15:45;49,006;
22.03.2024;15:30;49,006;
22.03.2024;15:15;49,006;
22.03.2024;15:00;49,006;
22.03.2024;14:45;49,006;
22.03.2024;14:30;49,006;
22.03.2024;14:15;49,006;
22.03.2024;14:00;49,006;
22.03.2024;13:45;49,006;
22.03.2024;13:30;49,006;
22.03.2024;13:15;49,006;
22.03.2024;13:00;49,006;
22.03.2024;12:45;49,006;
22.03.2024;12:30;49,006;
22.03.2024;12:15;49,006;
22.03.2024;12:00;49,006;
22.03.2024;11:45;49,006;
22.03.2024;11:30;49,006;
22.03.2024;11:15;49,006;
22.03.2024;11:00;49,006;
22.03.2024;10:45;49,006;
22.03.2024;10:30;49,006;
22.03.2024;10:15;49,006;
22.03.2024;10:00;49,006;
22.03.2024;09:45;49,006;
22.03.2024;09:30;49,005;
22.03.2024;09:15;49,006;
22.03.2024;09:00;49,005;
22.03.2024;08:45;49,005;
22.03.2024;08:30;49,005;
22.03.2024;08:15;49,005;
22.03.2024;08:00;49,005;
22.03.2024;07:45;49,005;
22.03.2024;07:30;49,005;
22.03.2024;07:15;49,005;
22.03.2024;07:00;49,005;
22.03.2024;06:45;49,004;
22.03.2024;06:30;49,005;
22.03.2024;06:15;49,005;
22.03.2024;06:00;49,004;
22.03.2024;05:45;49,004;
22.03.2024;05:30;49,005;
22.03.2024;05:15;49,004;
22.03.2024;05:00;49,004;
22.03.2024;04:45;49,004;
22.03.2024;04:30;49,004;
22.03.2024;04:15;49,004;
22.03.2024;04:00;49,004;
22.03.2024;03:45;49,004;
22.03.2024;03:30;49,004;
22.03.2024;03:15;49,004;
22.03.2024;03:00;49,004;
22.03.2024;02:45;49,004;
22.03.2024;02:30;49,004;
22.03.2024;02:15;49,004;
22.03.2024;02:00;49,004;
22.03.2024;01:45;49,004;
22.03.2024;01:30;49,004;
22.03.2024;01:15;49,004;
22.03.2024;01:00;49,004;
22.03.2024;00:45;49,004;
22.03.2024;00:30;49,004;
22.03.2024;00:15;49,004;
22.03.2024;00:00;49,004;
21.03.2024;23:45;49,004;
21.03.2024;23:30;49,004;
21.03.2024;23:15;49,004;
21.03.2024;23:00;49,004;
21.03.2024;22:45;49,004;
21.03.2024;22:30;49,004;
21.03.2024;22:15;49,005;
21.03.2024;22:00;49,004;
21.03.2024;21:45;49,004;
21.03.2024;21:30;49,005;
21.03.2024;21:15;49,005;
21.03.2024;21:00;49,005;
21.03.2024;20:45;49,005;
21.03.2024;20:30;49,005;
21.03.2024;20:15;49,005;
21.03.2024;20:00;49,005;
21.03.2024;19:45;49,005;
21.03.2024;19:30;49,005;
21.03.2024;19:15;49,005;
21.03.2024;19:00;49,005;
21.03.2024;18:45;49,005;
21.03.2024;18:30;49,005;
21.03.2024;18:15;49,005;
21.03.2024;18:00;49,005;
21.03.2024;17:45;49,005;
21.03.2024;17:30;49,006;
21.03.2024;17:15;49,006;
21.03.2024;17:00;49,005;
21.03.2024;16:45;49,005;
21.03.2024;16:30;49,005;
21.03.2024;16:15;49,005;
21.03.2024;16:00;49,005;
21.03.2024;15:45;49,005;
21.03.2024;15:30;49,005;
21.03.2024;15:15;49,005;
21.03.2024;15:00;49,006;
21.03.2024;14:45;49,005;
21.03.2024;14:30;49,005;
21.03.2024;14:15;49,005;
21.03.2024;14:00;49,006;
21.03.2024;13:45;49,005;
21.03.2024;13:30;49,005;
21.03.2024;13:15;49,005;
21.03.2024;13:00;49,005;
21.03.2024;12:45;49,005;
21.03.2024;12:30;49,005;
21.03.2024;12:15;49,005;
21.03.2024;12:00;49,005;
21.03.2024;11:45;49,005;
21.03.2024;11:30;49,005;
21.03.2024;11:15;49,004;
21.03.2024;11:00;49,004;
21.03.2024;10:45;49,005;
21.03.2024;10:30;49,004;
21.03.2024;10:15;49,004;
21.03.2024;10:00;49,004;
21.03.2024;09:45;49,004;
21.03.2024;09:30;49,004;
21.03.2024;09:15;49,004;
21.03.2024;09:00;49,004;
21.03.2024;08:45;49,004;
21.03.2024;08:30;49,004;
21.03.2024;08:15;49,004;
21.03.2024;08:00;49,004;
21.03.2024;07:45;49,004;
21.03.2024;07:30;49,004;
21.03.2024;07:15;49,004;
21.03.2024;07:00;49,004;
21.03.2024;06:45;49,004;
21.03.2024;06:30;49,004;
21.03.2024;06:15;49,004;
21.03.2024;06:00;49,004;
21.03.2024;05:45;49,004;
21.03.2024;05:30;49,004;
21.03.2024;05:15;49,004;
21.03.2024;05:00;49,004;
21.03.2024;04:45;49,003;
21.03.2024;04:30;49,003;
21.03.2024;04:15;49,003;
21.03.2024;04:00;49,003;
21.03.2024;03:45;49,003;
21.03.2024;03:30;49,003;
21.03.2024;03:15;49,003;
21.03.2024;03:00;49,003;
21.03.2024;02:45;49,003;
21.03.2024;02:30;49,003;
21.03.2024;02:15;49,003;
21.03.2024;02:00;49,003;
21.03.2024;01:45;49,003;
21.03.2024;01:30;49,003;
21.03.2024;01:15;49,003;
21.03.2024;01:00;49,003;
21.03.2024;00:45;49,003;
21.03.2024;00:30;49,003;
21.03.2024;00:15;49,003;
21.03.2024;00:00;49,003;
20.03.2024;23:45;49,003;
20.03.2024;23:30;49,003;
20.03.2024;23:15;49,003;
20.03.2024;23:00;49,003;
20.03.2024;22:45;49,003;
20.03.2024;22:30;49,003;
20.03.2024;22:15;49,003;
20.03.2024;22:00;49,003;
20.03.2024;21:45;49,003;
20.03.2024;21:30;49,003;
20.03.2024;21:15;49,003;
20.03.2024;21:00;49,003;
20.03.2024;20:45;49,003;
20.03.2024;20:30;49,003;
20.03.2024;20:15;49,003;
20.03.2024;20:00;49,003;
20.03.2024;19:45;49,003;
20.03.2024;19:30;49,003;
20.03.2024;19:15;49,003;
20.03.2024;19:00;49,003;
20.03.2024;18:45;49,003;
20.03.2024;18:30;49,003;
20.03.2024;18:15;49,003;
20.03.2024;18:00;49,003;
20.03.2024;17:45;49,003;
20.03.2024;17:30;49,003;
20.03.2024;17:15;49,003;
20.03.2024;17:00;49,003;
20.03.2024;16:45;49,003;
20.03.2024;16:30;49,003;
20.03.2024;16:15;49,003;
20.03.2024;16:00;49,003;
20.03.2024;15:45;49,003;
20.03.2024;15:30;49,003;
20.03.2024;15:15;49,003;
20.03.2024;15:00;49,003;
20.03.2024;14:45;49,003;
20.03.2024;14:30;49,003;
20.03.2024;14:15;49,003;
20.03.2024;14:00;49,003;
20.03.2024;13:45;49,003;
20.03.2024;13:30;49,003;
20.03.2024;13:15;49,003;
20.03.2024;13:00;49,003;
20.03.2024;12:45;49,003;
20.03.2024;12:30;49,003;
20.03.2024;12:15;49,003;
20.03.2024;12:00;49,003;
20.03.2024;11:45;49,003;
20.03.2024;11:30;49,003;
20.03.2024;11:15;49,003;
20.03.2024;11:00;49,003;
20.03.2024;10:45;49,003;
20.03.2024;10:30;49,003;
20.03.2024;10:15;49,003;
20.03.2024;10:00;49,003;
20.03.2024;09:45;49,003;
20.03.2024;09:30;49,003;
20.03.2024;09:15;49,003;
20.03.2024;09:00;49,003;
20.03.2024;08:45;49,003;
20.03.2024;08:30;49,003;
20.03.2024;08:15;49,003;
20.03.2024;08:00;49,003;
20.03.2024;07:45;49,003;
20.03.2024;07:30;49,003;
20.03.2024;07:15;49,003;
20.03.2024;07:00;49,003;
20.03.2024;06:45;49,003;
20.03.2024;06:30;49,003;
20.03.2024;06:15;49,003;
20.03.2024;06:00;49,003;
20.03.2024;05:45;49,003;
20.03.2024;05:30;49,003;
20.03.2024;05:15;49,003;
20.03.2024;05:00;49,003;
20.03.2024;04:45;49,003;
20.03.2024;04:30;49,003;
20.03.2024;04:15;49,003;
20.03.2024;04:00;49,003;
20.03.2024;03:45;49,003;
20.03.2024;03:30;49,003;
20.03.2024;03:15;49,003;
20.03.2024;03:00;49,003;
20.03.2024;02:45;49,003;
20.03.2024;02:30;49,003;
20.03.2024;02:15;49,003;
20.03.2024;02:00;49,003;
20.03.2024;01:45;49,003;
20.03.2024;01:30;49,003;
20.03.2024;01:15;49,003;
20.03.2024;01:00;49,003;
20.03.2024;00:45;49,003;
20.03.2024;00:30;49,003;
20.03.2024;00:15;49,003;
20.03.2024;00:00;49,003;
19.03.2024;23:45;49,003;
19.03.2024;23:30;49,003;
19.03.2024;23:15;49,003;
19.03.2024;23:00;49,003;
19.03.2024;22:45;49,003;
19.03.2024;22:30;49,003;
19.03.2024;22:15;49,003;
19.03.2024;22:00;49,003;
19.03.2024;21:45;49,003;
19.03.2024;21:30;49,003;
19.03.2024;21:15;49,003;
19.03.2024;21:00;49,003;
19.03.2024;20:45;49,003;
19.03.2024;20:30;49,003;
19.03.2024;20:15;49,003;
19.03.2024;20:00;49,003;
19.03.2024;19:45;49,003;
19.03.2024;19:30;49,003;
19.03.2024;19:15;49,003;
19.03.2024;19:00;49,003;
19.03.2024;18:45;49,003;
19.03.2024;18:30;49,003;
19.03.2024;18:15;49,003;
19.03.2024;18:00;49,003;
19.03.2024;17:45;49,003;
19.03.2024;17:30;49,003;
19.03.2024;17:15;49,003;
19.03.2024;17:00;49,003;
19.03.2024;16:45;49,003;
19.03.2024;16:30;49,003;
19.03.2024;16:15;49,003;
19.03.2024;16:00;49,003;
19.03.2024;15:45;49,003;
19.03.2024;15:30;49,003;
19.03.2024;15:15;49,003;
19.03.2024;15:00;49,003;
19.03.2024;14:45;49,003;
19.03.2024;14:30;49,003;
19.03.2024;14:15;49,003;
19.03.2024;14:00;49,003;
19.03.2024;13:45;49,003;
19.03.2024;13:30;49,003;
19.03.2024;13:15;49,003;
19.03.2024;13:00;49,003;
19.03.2024;12:45;49,003;
19.03.2024;12:30;49,003;
19.03.2024;12:15;49,003;
19.03.2024;12:00;49,003;
19.03.2024;11:45;49,003;
19.03.2024;11:30;49,003;
19.03.2024;11:15;49,003;
19.03.2024;11:00;49,003;
19.03.2024;10:45;49,003;
19.03.2024;10:30;49,003;
19.03.2024;10:15;49,003;
19.03.2024;10:00;49,003;
19.03.2024;09:45;49,003;
19.03.2024;09:30;49,003;
19.03.2024;09:15;49,003;
19.03.2024;09:00;49,003;
19.03.2024;08:45;49,003;
19.03.2024;08:30;49,003;
19.03.2024;08:15;49,003;
19.03.2024;08:00;49,003;
19.03.2024;07:45;49,003;
19.03.2024;07:30;49,004;
19.03.2024;07:15;49,003;
19.03.2024;07:00;49,003;
19.03.2024;06:45;49,004;
19.03.2024;06:30;49,003;
19.03.2024;06:15;49,003;
19.03.2024;06:00;49,004;
19.03.2024;05:45;49,004;
19.03.2024;05:30;49,004;
19.03.2024;05:15;49,004;
19.03.2024;05:00;49,004;
19.03.2024;04:45;49,004;
19.03.2024;04:30;49,004;
19.03.2024;04:15;49,004;
19.03.2024;04:00;49,004;
19.03.2024;03:45;49,004;
19.03.2024;03:30;49,004;
19.03.2024;03:15;49,004;
19.03.2024;03:00;49,004;
19.03.2024;02:45;49,004;
19.03.2024;02:30;49,004;
19.03.2024;02:15;49,004;
19.03.2024;02:00;49,004;
19.03.2024;01:45;49,004;
19.03.2024;01:30;49,004;
19.03.2024;01:15;49,004;
19.03.2024;01:00;49,004;
19.03.2024;00:45;49,004;
19.03.2024;00:30;49,004;
19.03.2024;00:15;49,004;
19.03.2024;00:00;49,004;
18.03.2024;23:45;49,004;
18.03.2024;23:30;49,004;
18.03.2024;23:15;49,004;